| time (UTC) | temp C | wind direction | speed KPH | gust KPH | rain 1hr cm | rain 24hr cm | rain mn cm | humidity % | barometer mb |
| 20260504204627 | 11 | 275 | 4.8 | 8.0 | 0.00 | 0.00 | 0.00 | 92 | 1019.0 |
| 20260504203126 | 11 | 275 | 4.8 | 8.0 | 0.00 | 0.00 | 0.00 | 93 | 1019.0 |
| 20260504201626 | 11 | 280 | 1.6 | 6.4 | 0.00 | 0.00 | 0.00 | 92 | 1019.0 |
| 20260504200126 | 11 | 280 | 1.6 | 6.4 | 0.00 | 0.00 | 0.00 | 90 | 1019.0 |
| 20260504194626 | 12 | 280 | 1.6 | 6.4 | 0.00 | 0.00 | 0.00 | 87 | 1019.0 |
| 20260504193125 | 12 | 280 | 1.6 | 6.4 | 0.00 | 0.00 | 0.00 | 83 | 1019.0 |
| 20260504191625 | 12 | 280 | 1.6 | 6.4 | 0.00 | 0.00 | 0.00 | 83 | 1018.0 |
| 20260504190125 | 13 | 280 | 1.6 | 6.4 | 0.00 | 0.00 | 0.00 | 82 | 1018.0 |
| 20260504184625 | 13 | 280 | 1.6 | 6.4 | 0.00 | 0.00 | 0.00 | 81 | 1018.0 |
| 20260504183124 | 15 | 280 | 1.6 | 6.4 | 0.00 | 0.00 | 0.00 | 73 | 1018.0 |
| 20260504181624 | 15 | 280 | 1.6 | 6.4 | 0.00 | 0.00 | 0.00 | 69 | 1018.0 |
| 20260504180124 | 15 | 280 | 1.6 | 6.4 | 0.00 | 0.00 | 0.00 | 67 | 1018.0 |
| 20260504174624 | 16 | 280 | 1.6 | 6.4 | 0.00 | 0.00 | 0.00 | 60 | 1018.0 |
| 20260504173123 | 17 | 280 | 1.6 | 6.4 | 0.00 | 0.00 | 0.00 | 53 | 1018.0 |
| 20260504171623 | 17 | 280 | 1.6 | 6.4 | 0.00 | 0.00 | 0.00 | 56 | 1018.0 |
| 20260504171518 | 17 | 280 | 1.6 | 6.4 | 0.00 | 0.00 | 0.00 | 54 | 1018.0 |
| 20260504081508 | 15 | 305 | 8.0 | 12.9 | 0.00 | 0.00 | 0.00 | 79 | 1021.0 |
| 20260504050004 | 8 | 304 | 8.0 | 8.0 | 0.00 | 0.00 | 0.00 | 10 | 1020.0 |
| 20260504044504 | 8 | 304 | 8.0 | 9.7 | 0.00 | 0.00 | 0.00 | 10 | 1020.0 |
| 20260504043004 | 7 | 291 | 8.0 | 8.0 | 0.00 | 0.00 | 0.00 | 10 | 1020.0 |
| 20260504041503 | 7 | 291 | 8.0 | 8.0 | 0.00 | 0.00 | 0.00 | 10 | 1020.0 |
| 20260504040003 | 7 | 291 | 8.0 | 8.0 | 0.00 | 0.00 | 0.00 | 10 | 1020.0 |
| 20260504034503 | 7 | 291 | 8.0 | 8.0 | 0.00 | 0.00 | 0.00 | 10 | 1020.0 |
| 20260504033003 | 7 | 291 | 8.0 | 8.0 | 0.00 | 0.00 | 0.00 | 10 | 1020.0 |
| 20260504031502 | 7 | 291 | 8.0 | 8.0 | 0.00 | 0.00 | 0.00 | 10 | 1020.0 |
| 20260504024502 | 7 | 291 | 8.0 | 8.0 | 0.00 | 0.00 | 0.00 | 10 | 1020.0 |
| 20260504021501 | 6 | 291 | 8.0 | 8.0 | 0.00 | 0.00 | 0.00 | 10 | 1020.0 |
| 20260504020001 | 6 | 291 | 8.0 | 9.7 | 0.00 | 0.00 | 0.00 | 10 | 1020.0 |
| 20260504014501 | 6 | 291 | 8.0 | 9.7 | 0.00 | 0.00 | 0.00 | 10 | 1020.0 |
| 20260504013001 | 6 | 289 | 6.4 | 9.7 | 0.00 | 0.00 | 0.00 | 10 | 1020.0 |
| 20260504011500 | 6 | 289 | 6.4 | 9.7 | 0.00 | 0.00 | 0.00 | 10 | 1020.0 |
| 20260504010000 | 6 | 289 | 6.4 | 9.7 | 0.00 | 0.00 | 0.00 | 10 | 1020.0 |
| 20260504004500 | 6 | 298 | 6.4 | 6.4 | 0.00 | 0.00 | 0.00 | 10 | 1020.0 |
| 20260504003000 | 6 | 293 | 6.4 | 6.4 | 0.00 | 0.00 | 0.00 | 10 | 1020.0 |
| 20260504001500 | 7 | 293 | 6.4 | 6.4 | 0.00 | 0.00 | 0.00 | 10 | 1020.0 |
| 20260503235959 | 7 | 293 | 6.4 | 6.4 | 0.00 | 0.00 | 0.00 | 10 | 1020.0 |
| 20260503234459 | 7 | 293 | 6.4 | 6.4 | 0.00 | 0.00 | 0.00 | 10 | 1020.0 |
| 20260503232959 | 7 | 289 | 3.2 | 3.2 | 0.00 | 0.00 | 0.00 | 10 | 1020.0 |
| 20260503231458 | 7 | 317 | 1.6 | 1.6 | 0.00 | 0.00 | 0.00 | 10 | 1020.0 |
| 20260503225958 | 7 | 317 | 1.6 | 1.6 | 0.00 | 0.00 | 0.00 | 10 | 1020.0 |
| 20260503224458 | 7 | 317 | 1.6 | 1.6 | 0.00 | 0.00 | 0.00 | 10 | 1020.0 |
| 20260503222958 | 7 | 317 | 1.6 | 1.6 | 0.00 | 0.00 | 0.00 | 10 | 1020.0 |
| 20260503221457 | 7 | 317 | 1.6 | 1.6 | 0.00 | 0.00 | 0.00 | 10 | 1020.0 |
| 20260503215957 | 8 | 317 | 1.6 | 1.6 | 0.00 | 0.00 | 0.00 | 10 | 1020.0 |
| 20260503214457 | 7 | 317 | 1.6 | 1.6 | 0.00 | 0.00 | 0.00 | 10 | 1020.0 |
| 20260503212957 | 8 | 317 | 1.6 | 1.6 | 0.00 | 0.00 | 0.00 | 10 | 1020.0 |
| 20260503211456 | 8 | 317 | 1.6 | 3.2 | 0.00 | 0.00 | 0.00 | 10 | 1020.0 |
| 20260503205956 | 7 | 95 | 1.6 | 1.6 | 0.00 | 0.00 | 0.00 | 10 | 1020.0 |